Weather History for Oklahoma City, OK

Change the Weather History Date:

Saturday, August 4, 2012

  Actual Average Record
Temperature  
Mean Temperature 95 °F 84 °F  
Max Temperature 109 °F 95 °F 109 °F (2012)
Min Temperature 80 °F 73 °F 58 °F (1973)
Cooling Degree Days 30 19  
Month to date cooling degree days 127 76  
Year to date cooling degree days 1624 1275  
Since 1 June cooling degree days 1240  
Growing Degree Days 45 (Base 50)    
Moisture  
Dew Point 60 °F    
Average Humidity 38    
Maximum Humidity 58    
Minimum Humidity 18    
Precipitation  
Precipitation 0.00 in 0.10 in 1.32 in (1985)
Month to date precipitation 0.00 0.39  
Year to date precipitation 19.58 22.00  
Sea Level Pressure  
Sea Level Pressure 29.82 in    
Wind  
Wind Speed 13 mph (SSW)    
Max Wind Speed 21 mph    
Max Gust Speed 29 mph    
Visibility 10 miles    
Events      
T = Trace of Precipitation, MM = Missing Value Source: NWS Daily Summary

Daily Weather History Graph

Daily Weather History Graph

Search for Another Location

Airport:

Trip Planner

Search our weather history database for the weather conditions in past years. The results will help you decide how hot, cold, wet, or windy it might be!

Date:

Astronomy

Aug. 04, 2012 Rise Set
Actual Time 6:41 AM CDT 8:30 PM CDT
Civil Twilight 6:14 AM CDT 8:58 PM CDT
Nautical Twilight 5:40 AM CDT 9:31 PM CDT
Astronomical Twilight 5:04 AM CDT 10:07 PM CDT
Moon 9:50 PM CDT (8/4) 9:21 AM CDT (8/4)
Length of Visible Light 14h 44m
Length of Day
13h 48m
Waning Gibbous, 92% of the Moon is Illuminated
Aug 4
Waning Gibbous
Aug 9
Last Quarter
Aug 17
New
Aug 24
First Quarter
Aug 31
Full

Hourly Weather History & Observations

Time (CDT) Temp. Heat Index Dew Point Humidity Pressure Visibility Wind Dir Wind Speed Gust Speed Precip Events Conditions
12:52 AM 89.1 °F 89.0 °F 61.0 °F 39% 29.75 in 10.0 mi South 13.8 mph - N/A   Partly Cloudy
1:52 AM 88.0 °F 87.6 °F 60.1 °F 39% 29.75 in 10.0 mi South 12.7 mph - N/A   Partly Cloudy
2:52 AM 84.9 °F 84.8 °F 60.1 °F 43% 29.76 in 10.0 mi South 11.5 mph - N/A   Partly Cloudy
3:52 AM 84.9 °F 85.4 °F 62.1 °F 46% 29.77 in 10.0 mi South 12.7 mph - N/A   Scattered Clouds
4:52 AM 82.9 °F 83.7 °F 62.1 °F 49% 29.78 in 10.0 mi South 13.8 mph - N/A   Scattered Clouds
5:52 AM 82.9 °F 84.0 °F 63.0 °F 51% 29.79 in 10.0 mi SSW 11.5 mph - N/A   Scattered Clouds
6:52 AM 81.0 °F 82.5 °F 64.0 °F 56% 29.81 in 10.0 mi SSW 9.2 mph - N/A   Scattered Clouds
7:52 AM 82.9 °F 84.4 °F 64.0 °F 53% 29.82 in 10.0 mi South 12.7 mph - N/A   Partly Cloudy
8:52 AM 87.1 °F 88.9 °F 64.9 °F 48% 29.83 in 10.0 mi SSW 19.6 mph 25.3 mph N/A   Partly Cloudy
9:52 AM 91.9 °F 93.3 °F 64.0 °F 39% 29.84 in 10.0 mi SW 18.4 mph 25.3 mph N/A   Partly Cloudy
10:52 AM 96.1 °F 97.3 °F 63.0 °F 33% 29.84 in 10.0 mi SW 16.1 mph 25.3 mph N/A   Partly Cloudy
11:52 AM 99.0 °F 100.5 °F 63.0 °F 30% 29.84 in 10.0 mi SW 16.1 mph 24.2 mph N/A   Clear
12:52 PM 102.0 °F 103.3 °F 61.0 °F 26% 29.84 in 10.0 mi SSW 12.7 mph 21.9 mph N/A   Clear
1:52 PM 105.1 °F 105.0 °F 57.9 °F 21% 29.83 in 10.0 mi South 17.3 mph 24.2 mph N/A   Partly Cloudy
2:52 PM 107.1 °F 106.7 °F 57.0 °F 19% 29.83 in 10.0 mi South 16.1 mph 21.9 mph N/A   Partly Cloudy
3:52 PM 107.1 °F 106.7 °F 57.0 °F 19% 29.81 in 10.0 mi SSW 13.8 mph 21.9 mph N/A   Partly Cloudy
4:52 PM 107.1 °F 107.4 °F 57.9 °F 20% 29.81 in 10.0 mi South 12.7 mph - N/A   Partly Cloudy
5:52 PM 107.1 °F 106.7 °F 55.9 °F 19% 29.80 in 10.0 mi SSW 13.8 mph 18.4 mph N/A   Unknown
6:52 PM 105.1 °F 104.4 °F 55.9 °F 20% 29.81 in 10.0 mi SSW 13.8 mph - N/A   Partly Cloudy
7:52 PM 100.9 °F 100.5 °F 57.9 °F 24% 29.82 in 10.0 mi South 15.0 mph 20.7 mph N/A   Partly Cloudy
8:52 PM 96.1 °F 94.1 °F 55.0 °F 25% 29.83 in 10.0 mi South 15.0 mph - N/A   Partly Cloudy
9:52 PM 91.9 °F 90.8 °F 57.9 °F 32% 29.88 in 10.0 mi South 6.9 mph - N/A   Partly Cloudy
10:52 PM 88.0 °F 87.1 °F 59.0 °F 37% 29.92 in 10.0 mi WSW 6.9 mph - N/A   Clear
11:52 PM 88.0 °F 87.6 °F 60.1 °F 39% 29.94 in 10.0 mi WSW 8.1 mph - N/A   Clear